Location: Piotrkow Trybunalski
(51.4000°N, 19.6830°E)
Time: 14:36:21
(UTC+02:00)

Explorer 7 - Pass Details

Date: 02 February 2023
Orbit: 478 x 656 km, 50.3° (Epoch: 01 April)

Event Time Altitude Azimuth Distance (km) Brightness Sun altitude
Rises 17:21:15 0° 283° (WNW) 2,870 11.6 -7.9°
Reaches altitude 10° 17:23:40 10° 274° (W) 1,991 11.0 -8.3°
Maximum altitude 17:27:47 33° 211° (SSW) 1,074 8.8 -8.9°
Drops below altitude 10° 17:32:02 10° 147° (SSE) 2,054 9.6 -9.5°
Sets 17:34:34 0° 138° (SE) 2,974 10.3 -9.9°
